Location: Newark
(45.8667°N, 9.7333°E)
Time: 14:47:46
(UTC+00:00)

A-11 Canister half - Pass Details

Date: 24 January 2020
Orbit: 1517 x 1683 km, 47.2° (Epoch: 22 February)

Event Time Altitude Azimuth Distance (km) Brightness Sun altitude
Rises 07:24:29 0° 287° (WNW) 4,669 10.9 4.0°
Reaches altitude 10° 07:29:03 10° 268° (W) 3,696 10.6 4.7°
Maximum altitude 07:34:02 16° 234° (SW) 3,265 10.6 5.4°
Drops below altitude 10° 07:39:06 10° 201° (SSW) 3,737 11.3 6.1°
Sets 07:43:49 0° 181° (S) 4,748 12.1 6.8°
